FW8587 Weather Reports


time (UTC)temp
C
wind
direction
speed
KPH
gust
KPH
rain 1hr
cm
rain 24hr
cm
rain mn
cm
humidity
%
barometer
mb
20260507063204 10 28 0.0 0.0 0.00 0.00 0.00 85 1022.7
20260507062205 10 28 0.0 1.6 0.00 0.00 0.00 85 1022.7
20260507061205 10 27 0.0 1.6 0.00 0.00 0.00 84 1022.6
20260507060704 10 312 0.0 0.0 0.00 0.00 0.00 84 1022.7
20260507060205 10 312 0.0 1.6 0.00 0.00 0.00 83 1022.7
20260507055705 10 305 0.0 1.6 0.00 0.00 0.00 83 1022.6
20260507055205 10 246 0.0 1.6 0.00 0.00 0.00 83 1022.7
20260507054704 10 32 0.0 1.6 0.00 0.00 0.00 83 1022.7
20260507054205 10 49 1.6 4.8 0.00 0.00 0.00 83 1022.7
20260507053705 10 17 1.6 4.8 0.00 0.00 0.00 84 1022.7
20260507052705 11 347 1.6 4.8 0.00 0.00 0.00 84 1022.7
20260507052205 11 293 0.0 3.2 0.00 0.00 0.00 84 1022.6
20260507051704 11 321 1.6 3.2 0.00 0.00 0.00 84 1022.7
20260507051205 11 5 1.6 4.8 0.00 0.00 0.00 84 1022.7
20260507050705 11 281 0.0 3.2 0.00 0.00 0.00 84 1022.7
20260507050205 11 349 0.0 4.8 0.00 0.00 0.00 84 1022.7
20260507045205 11 358 0.0 3.2 0.00 0.00 0.00 84 1022.7
20260507044704 11 317 0.0 3.2 0.00 0.00 0.00 84 1022.7
20260507044204 11 8 0.0 1.6 0.00 0.00 0.00 85 1022.7
20260507043704 11 74 0.0 3.2 0.00 0.00 0.00 84 1022.8
20260507043204 11 323 0.0 4.8 0.00 0.00 0.00 84 1022.7
20260507042205 11 325 0.0 1.6 0.00 0.00 0.00 84 1022.7
20260507041705 11 297 1.6 3.2 0.00 0.00 0.00 84 1022.7
20260507041204 11 355 1.6 4.8 0.00 0.00 0.00 84 1022.6
20260507040704 11 330 0.0 4.8 0.00 0.00 0.00 84 1022.6
20260507040204 11 5 0.0 1.6 0.00 0.00 0.00 84 1022.5
20260507035705 11 351 0.0 3.2 0.00 0.00 0.00 84 1022.5
20260507035204 12 0 1.6 4.8 0.00 0.00 0.00 84 1022.5
20260507034705 12 9 0.0 1.6 0.00 0.00 0.00 83 1022.4
20260507033705 12 327 1.6 4.8 0.00 0.00 0.00 83 1022.4
20260507033205 12 303 0.0 1.6 0.00 0.00 0.00 83 1022.3
20260507032704 12 75 0.0 3.2 0.00 0.00 0.00 83 1022.3
20260507031705 12 327 0.0 4.8 0.00 0.00 0.00 82 1022.2
20260507031205 12 288 0.0 3.2 0.00 0.00 0.00 83 1022.2
20260507030705 12 16 1.6 4.8 0.00 0.00 0.00 83 1022.2
20260507030205 12 251 1.6 4.8 0.00 0.00 0.00 83 1022.2
20260507025705 12 19 0.0 4.8 0.00 0.00 0.00 82 1022.1
20260507025204 12 305 0.0 3.2 0.00 0.00 0.00 82 1022.1
20260507024704 12 288 0.0 4.8 0.00 0.00 0.00 82 1022.1
20260507024204 12 330 0.0 3.2 0.00 0.00 0.00 84 1022.0
20260507023205 12 271 1.6 4.8 0.00 0.00 0.00 82 1021.9
20260507022704 12 268 1.6 4.8 0.00 0.00 0.00 82 1021.9
20260507022204 12 331 1.6 4.8 0.00 0.00 0.00 81 1021.8
20260507021704 12 284 3.2 11.3 0.00 0.00 0.00 81 1021.9
20260507020705 13 104 3.2 8.0 0.00 0.00 0.00 80 1021.9
20260507020204 13 163 1.6 4.8 0.00 0.00 0.00 79 1022.0
20260507015704 13 337 1.6 4.8 0.00 0.00 0.00 79 1021.9
20260507015205 13 279 1.6 4.8 0.00 0.00 0.00 79 1022.0
20260507014204 13 323 1.6 3.2 0.00 0.00 0.00 79 1021.9
20260507013705 13 347 3.2 8.0 0.00 0.00 0.00 78 1021.9
20260507013204 13 301 3.2 16.1 0.00 0.00 0.00 78 1021.9
20260507012704 13 0 1.6 12.9 0.00 0.00 0.00 77 1021.7
20260507012205 13 331 1.6 11.3 0.00 0.00 0.00 77 1021.8
20260507011704 13 319 4.8 9.7 0.00 0.00 0.00 76 1021.8
20260507011204 13 301 1.6 4.8 0.00 0.00 0.00 77 1021.7
20260507010704 13 162 3.2 4.8 0.00 0.00 0.00 77 1021.7
20260507010204 14 319 1.6 4.8 0.00 0.00 0.00 76 1021.7
20260507005704 14 330 1.6 4.8 0.00 0.00 0.00 76 1021.9
20260507005204 14 92 3.2 4.8 0.00 0.00 0.00 75 1021.8
20260507004704 14 248 0.0 4.8 0.00 0.00 0.00 75 1021.7
20260507004204 14 292 1.6 4.8 0.00 0.00 0.00 74 1021.8
20260507003704 15 276 1.6 4.8 0.00 0.00 0.00 75 1021.9
20260507003204 15 162 1.6 8.0 0.00 0.00 0.00 75 1021.9
20260507002204 15 344 4.8 16.1 0.00 0.00 0.00 74 1021.9
20260507001704 15 319 1.6 14.5 0.00 0.00 0.00 74 1021.8
20260507001204 15 317 1.6 4.8 0.00 0.00 0.00 75 1021.8
20260507000704 15 294 1.6 4.8 0.00 0.00 0.00 75 1021.8
20260506235204 15 92 1.6 4.8 0.00 0.00 0.00 76 1021.8
20260506234704 15 269 3.2 12.9 0.00 0.00 0.00 75 1021.8
20260506234204 15 311 3.2 11.3 0.00 0.00 0.00 75 1021.8
20260506233704 15 230 3.2 14.5 0.00 0.00 0.00 75 1021.8
20260506233205 15 264 1.6 8.0 0.00 0.00 0.00 75 1021.7
20260506232705 15 310 1.6 4.8 0.00 0.00 0.00 75 1021.8
20260506232205 15 179 1.6 11.3 0.00 0.00 0.00 75 1021.8
20260506231204 15 117 1.6 9.7 0.00 0.00 0.00 74 1021.8
20260506230704 16 109 3.2 9.7 0.00 0.00 0.00 73 1021.8
20260506230204 16 265 1.6 4.8 0.00 0.00 0.00 73 1021.7
20260506225704 16 270 3.2 8.0 0.00 0.00 0.00 74 1021.7
20260506225204 16 3 3.2 8.0 0.00 0.00 0.00 74 1021.8
20260506224704 15 232 3.2 12.9 0.00 0.00 0.00 74 1021.8
20260506224204 15 162 3.2 8.0 0.00 0.00 0.00 75 1021.8
20260506222704 15 279 1.6 4.8 0.00 0.00 0.00 76 1022.0
20260506221705 15 337 3.2 8.0 0.00 0.00 0.00 75 1022.1
20260506221205 15 286 1.6 4.8 0.00 0.00 0.00 76 1022.1
20260506220704 15 168 1.6 4.8 0.00 0.00 0.00 74 1022.1
20260506220203 15 242 1.6 4.8 0.00 0.00 0.00 74 1022.0
20260506215704 15 116 1.6 4.8 0.00 0.00 0.00 76 1022.0
20260506215204 15 318 1.6 4.8 0.00 0.00 0.00 76 1022.0
20260506214704 15 5 1.6 3.2 0.00 0.00 0.00 74 1022.0
20260506214204 15 203 0.0 3.2 0.00 0.00 0.00 75 1021.9
20260506213704 15 240 0.0 4.8 0.00 0.00 0.00 74 1021.9
20260506213204 15 164 0.0 3.2 0.00 0.00 0.00 75 1021.9
20260506212704 15 309 0.0 1.6 0.00 0.00 0.00 77 1021.9
20260506212203 15 313 0.0 1.6 0.00 0.00 0.00 75 1021.9
20260506211704 15 279 0.0 1.6 0.00 0.00 0.00 76 1022.0
20260506210704 15 32 0.0 4.8 0.00 0.00 0.00 74 1021.9
20260506210204 15 94 0.0 1.6 0.00 0.00 0.00 75 1022.0
20260506205704 15 99 1.6 4.8 0.00 0.00 0.00 76 1021.9
20260506205204 15 137 0.0 4.8 0.00 0.00 0.00 77 1022.0
20260506204704 14 204 0.0 1.6 0.00 0.00 0.00 76 1022.0
20260506204204 14 179 0.0 1.6 0.00 0.00 0.00 76 1022.0
20260506203704 14 269 1.6 4.8 0.00 0.00 0.00 77 1022.0
20260506203204 14 221 0.0 3.2 0.00 0.00 0.00 79 1022.0
20260506202204 14 334 1.6 4.8 0.00 0.00 0.00 78 1021.9
20260506201704 14 148 0.0 3.2 0.00 0.00 0.00 77 1021.9
20260506201204 14 126 1.6 4.8 0.00 0.00 0.00 77 1021.9
20260506200704 14 285 1.6 4.8 0.00 0.00 0.00 78 1021.8
20260506200204 14 144 1.6 3.2 0.00 0.00 0.00 78 1021.9
20260506195703 14 57 1.6 3.2 0.00 0.00 0.00 78 1021.9
20260506194704 14 290 1.6 3.2 0.00 0.00 0.00 80 1021.9
20260506194204 14 175 0.0 3.2 0.00 0.00 0.00 81 1021.9
20260506193703 14 258 1.6 3.2 0.00 0.00 0.00 80 1021.9
20260506193203 13 126 1.6 4.8 0.00 0.00 0.00 82 1021.8
20260506192204 13 281 1.6 4.8 0.00 0.00 0.00 83 1021.9
20260506191704 13 76 0.0 0.0 0.00 0.00 0.00 83 1021.9
20260506191204 12 63 1.6 3.2 0.00 0.00 0.00 83 1022.0
20260506190705 12 131 1.6 3.2 0.00 0.00 0.00 84 1022.0
20260506190206 12 80 0.0 1.6 0.00 0.00 0.00 86 1022.0
20260506185705 12 95 0.0 3.2 0.00 0.00 0.00 86 1022.0
20260506185205 12 103 1.6 4.8 0.00 0.00 0.00 85 1022.0
20260506184205 12 139 0.0 3.2 0.00 0.00 0.00 87 1021.9
20260506183706 12 110 0.0 1.6 0.00 0.00 0.00 87 1021.8
20260506183205 12 134 0.0 1.6 0.00 0.00 0.00 88 1021.8
20260506181706 12 88 0.0 1.6 0.00 0.00 0.00 89 1021.7
20260506181205 11 99 0.0 3.2 0.00 0.00 0.00 90 1021.9
20260506180706 11 310 1.6 3.2 0.00 0.00 0.00 90 1021.8
20260506180206 11 286 0.0 1.6 0.00 0.00 0.00 91 1021.7
20260506175705 11 273 0.0 1.6 0.00 0.00 0.00 92 1021.7
20260506175205 11 275 0.0 3.2 0.00 0.00 0.00 92 1021.6
20260506174705 11 290 0.0 3.2 0.00 0.00 0.00 92 1021.7
20260506174205 11 65 0.0 3.2 0.00 0.00 0.00 93 1021.7
20260506173705 11 297 1.6 4.8 0.00 0.00 0.00 93 1021.7
20260506173205 11 279 1.6 3.2 0.00 0.00 0.00 93 1021.8
20260506172706 11 268 0.0 1.6 0.00 0.00 0.00 94 1021.7
20260506171705 11 315 1.6 1.6 0.00 0.00 0.00 94 1021.6
20260506171205 11 305 1.6 4.8 0.00 0.00 0.00 94 1021.6
20260506170705 11 290 1.6 3.2 0.00 0.00 0.00 95 1021.7
20260506170205 11 279 1.6 3.2 0.00 0.00 0.00 95 1021.6
20260506165705 11 259 0.0 3.2 0.00 0.00 0.00 95 1021.6
20260506164705 11 286 0.0 1.6 0.00 0.00 0.00 95 1021.6
20260506164206 11 293 0.0 3.2 0.00 0.00 0.00 95 1021.4
20260506163705 11 293 0.0 1.6 0.00 0.00 0.00 95 1021.4
20260506163206 11 293 0.0 0.0 0.00 0.00 0.00 95 1021.4
20260506162705 11 293 0.0 1.6 0.00 0.00 0.00 95 1021.3
20260506162205 11 293 0.0 0.0 0.00 0.00 0.00 95 1021.3
20260506161705 11 292 0.0 1.6 0.00 0.00 0.00 95 1021.3
20260506161205 10 128 0.0 0.0 0.00 0.00 0.00 95 1021.2
20260506155705 10 128 1.6 3.2 0.00 0.00 0.00 95 1021.0
20260506155205 10 229 0.0 1.6 0.00 0.00 0.00 94 1021.0
20260506154705 10 229 0.0 3.2 0.00 0.00 0.00 94 1021.2
20260506154205 10 229 0.0 1.6 0.00 0.00 0.00 94 1021.1
20260506153705 10 216 0.0 0.0 0.00 0.00 0.00 94 1021.1
20260506153205 10 216 0.0 3.2 0.00 0.00 0.00 94 1021.1
20260506152705 10 216 0.0 1.6 0.00 0.00 0.00 94 1021.1
20260506152205 10 216 0.0 1.6 0.00 0.00 0.00 94 1021.1
20260506151706 10 216 0.0 1.6 0.00 0.00 0.00 94 1021.0
20260506151205 10 167 0.0 1.6 0.00 0.00 0.00 94 1021.1
20260506150706 10 159 0.0 1.6 0.00 0.00 0.00 93 1021.1
20260506150205 10 179 0.0 1.6 0.00 0.00 0.00 94 1021.1
20260506145705 10 192 0.0 1.6 0.00 0.00 0.00 94 1021.1
20260506145205 10 211 0.0 1.6 0.00 0.00 0.00 94 1021.0
20260506144705 10 214 0.0 1.6 0.00 0.00 0.00 94 1021.2
20260506144205 10 211 0.0 3.2 0.00 0.00 0.00 94 1021.0
20260506143705 10 173 0.0 1.6 0.00 0.00 0.00 94 1020.8
20260506142705 10 148 0.0 1.6 0.00 0.00 0.00 94 1020.5
20260506142205 10 148 0.0 0.0 0.00 0.00 0.00 94 1020.6
20260506140705 10 148 0.0 1.6 0.00 0.00 0.00 94 1020.6
20260506140205 10 148 0.0 0.0 0.00 0.00 0.00 94 1020.8
20260506135705 10 148 1.6 3.2 0.00 0.00 0.00 93 1020.5
20260506135205 10 311 0.0 1.6 0.00 0.00 0.00 93 1020.8
20260506134705 10 312 0.0 1.6 0.00 0.00 0.00 93 1020.7
20260506134205 10 317 0.0 1.6 0.00 0.00 0.00 93 1020.7
20260506133705 10 327 0.0 0.0 0.00 0.00 0.00 93 1020.7
20260506133205 10 327 0.0 1.6 0.00 0.00 0.00 93 1020.6
20260506132705 10 340 0.0 0.0 0.00 0.00 0.00 93 1020.7
20260506132206 10 340 0.0 0.0 0.00 0.00 0.00 93 1020.6
20260506131705 10 340 0.0 0.0 0.00 0.00 0.00 92 1020.6
20260506131205 10 340 0.0 0.0 0.00 0.00 0.00 92 1020.5
20260506130705 10 340 1.6 1.6 0.00 0.00 0.00 92 1020.5
20260506130205 10 355 0.0 0.0 0.00 0.00 0.00 91 1020.4
20260506125705 10 355 1.6 3.2 0.00 0.00 0.00 91 1020.3
20260506125205 11 355 0.0 1.6 0.00 0.00 0.00 91 1020.4
20260506124705 11 23 0.0 1.6 0.00 0.00 0.00 91 1020.4
20260506124205 11 23 0.0 1.6 0.00 0.00 0.00 90 1020.3
20260506123705 11 92 0.0 1.6 0.00 0.00 0.00 90 1020.3
20260506122705 11 331 0.0 1.6 0.00 0.00 0.00 90 1020.1
20260506122205 11 339 1.6 4.8 0.00 0.00 0.00 90 1020.1
20260506121705 11 329 1.6 1.6 0.00 0.00 0.00 90 1020.1
20260506120705 11 294 1.6 4.8 0.00 0.00 0.00 90 1020.0
20260506120205 11 337 0.0 0.0 0.00 0.00 0.00 90 1019.9
20260506115205 11 340 0.0 0.0 0.00 0.00 0.00 90 1019.9
20260506114206 11 319 0.0 3.2 0.00 0.00 0.00 90 1019.8
20260506112705 11 286 0.0 1.6 0.00 0.00 0.00 90 1019.8
20260506112205 11 272 0.0 0.0 0.00 0.00 0.00 90 1019.8
20260506111705 11 272 0.0 3.2 0.00 0.00 0.00 90 1019.8
20260506111205 11 336 0.0 3.2 0.00 0.00 0.00 90 1019.8
20260506110205 11 240 0.0 3.2 0.00 0.00 0.00 90 1019.8
20260506105705 11 280 1.6 3.2 0.00 0.00 0.00 90 1019.7
20260506105205 11 329 1.6 4.8 0.00 0.00 0.00 90 1019.7
20260506104705 11 27 3.2 4.8 0.00 0.00 0.00 91 1019.6
20260506104204 11 13 0.0 0.0 0.00 0.00 0.00 91 1019.6
20260506103704 11 13 0.0 4.8 0.00 0.00 0.00 91 1019.5
20260506103205 11 29 0.0 4.8 0.00 0.00 0.00 91 1019.5
20260506102705 11 10 0.0 1.6 0.00 0.00 0.00 91 1019.5
20260506102205 11 88 0.0 0.0 0.00 0.00 0.00 91 1019.4
20260506101206 11 21 0.0 1.6 0.00 0.00 0.00 90 1019.4
20260506100705 11 0 0.0 3.2 0.00 0.00 0.00 90 1019.4
20260506100205 11 331 1.6 4.8 0.00 0.00 0.00 90 1019.3
20260506095706 11 355 1.6 4.8 0.00 0.00 0.00 89 1019.3
20260506095205 11 328 1.6 4.8 0.00 0.00 0.00 89 1019.3
20260506094204 11 5 0.0 1.6 0.00 0.00 0.00 88 1019.3
20260506093705 11 66 1.6 9.7 0.00 0.00 0.00 88 1019.3
20260506093205 11 116 0.0 1.6 0.00 0.00 0.00 88 1019.3
20260506092705 11 22 1.6 4.8 0.00 0.00 0.00 88 1019.2
20260506092205 11 11 0.0 1.6 0.00 0.00 0.00 88 1019.3
20260506090704 11 101 1.6 4.8 0.00 0.00 0.00 88 1019.2
20260506090204 11 282 1.6 4.8 0.00 0.00 0.00 88 1019.1
20260506085705 11 257 1.6 3.2 0.00 0.00 0.00 87 1019.1
20260506085204 11 333 1.6 3.2 0.00 0.00 0.00 87 1019.1
20260506084205 11 271 0.0 1.6 0.00 0.00 0.00 87 1019.0
20260506083705 11 317 0.0 1.6 0.00 0.00 0.00 87 1019.1
20260506083205 11 329 1.6 4.8 0.00 0.00 0.00 87 1018.9
20260506082705 11 346 1.6 3.2 0.00 0.00 0.00 88 1018.9
20260506082205 11 63 0.0 3.2 0.00 0.00 0.00 87 1018.8
20260506081705 11 221 0.0 1.6 0.00 0.00 0.00 87 1018.8
20260506081205 11 221 0.0 0.0 0.00 0.00 0.00 88 1018.7
20260506080705 12 221 0.0 1.6 0.00 0.00 0.00 87 1018.6
20260506080204 12 188 0.0 1.6 0.00 0.00 0.00 87 1018.6
20260506073205 12 92 1.6 3.2 0.00 0.00 0.00 87 1018.3
20260506072704 12 167 0.0 1.6 0.00 0.00 0.00 87 1018.4
20260506072205 12 190 0.0 1.6 0.00 0.00 0.00 87 1018.4
20260506071705 12 190 0.0 1.6 0.00 0.00 0.00 87 1018.3
20260506071205 12 121 0.0 1.6 0.00 0.00 0.00 87 1018.2
20260506070204 12 330 0.0 3.2 0.00 0.00 0.00 87 1018.2